Weather reports worldwide

Advertisment
St. Athan, United Kingdom (3716): temperature & dewpoint: 16.06.2018 19:00:00 - 22.06.2018 19:00:00 (BST)St. Athan, United Kingdom (3716): temperature -20cm & temperature -100cm: 16.06.2018 19:00:00 - 22.06.2018 19:00:00 (BST)St. Athan, United Kingdom (3716): wind speed & gusts: 16.06.2018 19:00:00 - 22.06.2018 19:00:00 (BST)St. Athan, United Kingdom (3716): wind direction: 16.06.2018 19:00:00 - 22.06.2018 19:00:00 (BST)St. Athan, United Kingdom (3716): reduced air pressure: 16.06.2018 19:00:00 - 22.06.2018 19:00:00 (BST)St. Athan, United Kingdom (3716): visibility: 16.06.2018 19:00:00 - 22.06.2018 19:00:00 (BST)St. Athan, United Kingdom (3716): sunshine duration: 16.06.2018 19:00:00 - 22.06.2018 19:00:00 (BST)St. Athan, United Kingdom (3716): precipitation: 16.06.2018 19:00:00 - 22.06.2018 19:00:00 (BST)
Date & Time tt [°C] td [°C] tt -20cm [°C] tt -100cm [°C] ff [km/h] ff [kn] fx [km/h] fx [kn] dd ppp [hPa] vv [km] sd [min] rr [mm]
22.06.2018 19:00:00 17,2 11,5 - - 15 8 - - W 1030,4 22 60 0,0
22.06.2018 18:00:00 16,7 11,5 - - 13 7 - - SW 1030,7 24 60 0,0
22.06.2018 17:00:00 16,7 10,4 - - 15 8 - - WSW 1030,9 10 60 0,0
22.06.2018 16:00:00 16,6 9,1 - - 15 8 - - WSW 1031,2 10 60 0,0
22.06.2018 15:00:00 16,2 7,1 - - 16 9 - - WSW 1031,5 10 60 0,0
22.06.2018 14:00:00 16,4 6,1 - - 15 8 - - SW 1031,6 40 60 0,0
22.06.2018 13:00:00 15,8 6,9 - - 16 9 - - WSW 1031,9 10 60 0,0
22.06.2018 12:00:00 14,9 6,2 - - 13 7 - - SW 1032,2 10 60 0,0
22.06.2018 11:00:00 14,5 6,2 - - 13 7 - - SW 1032,1 10 60 0,0
22.06.2018 10:00:00 15,3 7,1 16,5 15,2 4 2 - - S 1032,2 10 60 0,0
22.06.2018 09:00:00 13,8 6,2 - - 4 2 - - N 1032,4 10 60 0,0
22.06.2018 08:00:00 12,1 5,3 - - 5 3 - - N 1032,5 10 60 0,0
22.06.2018 07:00:00 10,0 4,3 - - 2 1 - - SSW 1032,3 24 60 0,0
22.06.2018 06:00:00 7,9 4,0 - - 8 4 - - N 1032,0 40 24 0,0
22.06.2018 05:00:00 8,1 3,9 - - 11 6 - - N 1032,0 45 0 0,0
22.06.2018 04:00:00 7,7 4,1 - - 8 4 - - N 1031,9 50 0 0,0
22.06.2018 03:00:00 9,5 3,7 - - 8 4 - - NNW 1031,8 50 0 0,0
22.06.2018 02:00:00 9,3 3,4 - - 9 5 - - N 1031,8 45 0 0,0
22.06.2018 01:00:00 10,1 3,5 - - 11 6 - - N 1031,6 50 - 0,0
22.06.2018 00:00:00 10,9 3,7 - - 13 7 - - N 1031,5 50 0 0,0
21.06.2018 23:00:00 11,8 3,8 - - 16 9 - - NNE 1031,2 50 0 0,0
21.06.2018 22:00:00 13,6 5,7 - - 11 6 - - N 1030,6 40 12 0,0
21.06.2018 21:00:00 15,7 4,2 - - 15 8 - - NNE 1030,0 50 60 0,0
21.06.2018 20:00:00 17,4 4,2 - - 18 10 - - NNE 1029,4 45 60 0,0
21.06.2018 19:00:00 18,2 3,6 - - 16 9 - - N 1029,0 25 60 0,0
21.06.2018 18:00:00 18,7 2,5 - - 18 10 - - NNE 1028,6 35 54 0,0
21.06.2018 17:00:00 18,7 4,4 - - 18 10 - - NNE 1028,4 10 48 0,0
21.06.2018 16:00:00 18,5 4,1 - - 8 4 - - NNE 1028,4 10 48 0,0
21.06.2018 15:00:00 17,9 3,3 - - 16 9 - - NNE 1028,3 10 60 0,0
21.06.2018 14:00:00 18,0 5,1 - - 16 9 - - N 1028,0 10 60 0,0
21.06.2018 13:00:00 16,7 4,3 - - 16 9 - - NNW 1027,9 10 60 0,0
21.06.2018 12:00:00 16,9 6,0 - - 11 6 - - NNW 1027,8 10 54 0,0
21.06.2018 11:00:00 15,3 5,5 - - 18 10 - - N 1027,6 10 48 0,0
21.06.2018 10:00:00 13,4 5,1 16,5 15,2 16 9 - - NNW 1027,5 10 60 0,0
21.06.2018 09:00:00 13,3 6,6 - - 15 8 - - N 1027,1 10 54 0,0
21.06.2018 08:00:00 11,1 6,3 - - 8 4 - - WNW 1026,8 28 54 0,0
21.06.2018 07:00:00 9,9 6,6 - - 5 3 - - WSW 1026,3 30 0 0,0
21.06.2018 06:00:00 9,7 6,6 - - 11 6 - - WNW 1025,4 35 0 0,0
21.06.2018 05:00:00 9,5 7,1 - - 9 5 - - WNW 1024,9 30 0 0,0
21.06.2018 04:00:00 9,9 7,4 - - 11 6 - - WNW 1024,8 23 0 0,0
21.06.2018 03:00:00 10,3 7,3 - - 11 6 - - WNW 1024,5 10 0 0,0
21.06.2018 02:00:00 10,7 7,6 - - 13 7 - - WNW 1024,2 30 0 0,0
21.06.2018 01:00:00 11,1 8,1 - - 13 7 - - WNW 1024,0 22 - 0,0
21.06.2018 00:00:00 11,4 8,5 - - 11 6 - - WNW 1023,5 24 0 0,0
20.06.2018 23:00:00 11,7 9,1 - - 15 8 - - NW 1023,0 40 0 0,0
20.06.2018 22:00:00 13,0 9,9 - - 13 7 - - WNW 1022,3 40 0 0,0
20.06.2018 21:00:00 15,2 11,2 - - 15 8 - - WNW 1021,2 40 24 0,0
20.06.2018 20:00:00 15,7 12,7 - - 16 9 - - WNW 1020,9 25 0 0,0
20.06.2018 19:00:00 15,5 13,4 - - 21 11 - - W 1020,7 29 0 0,0
20.06.2018 18:00:00 16,0 13,9 - - 22 12 - - W 1020,5 18 6 0,0
20.06.2018 17:00:00 16,3 13,9 - - 24 13 - - W 1020,4 26 6 0,0
20.06.2018 16:00:00 16,7 14,8 - - 22 12 - - W 1020,5 10 6 0,0
20.06.2018 15:00:00 15,5 14,6 - - 22 12 - - W 1020,7 3,0 0 0,0
20.06.2018 14:00:00 15,2 14,6 - - 22 12 48 26 W 1020,6 6 0 0,2
20.06.2018 13:00:00 16,2 15,2 - - 28 15 - - W 1020,6 4,0 0 0,0
20.06.2018 12:00:00 16,2 15,6 - - 22 12 - - W 1020,6 6 0 0,2
20.06.2018 11:00:00 16,7 15,2 - - 18 10 - - W 1020,5 3,0 0 0,0
20.06.2018 10:00:00 16,8 15,2 16,7 15,2 18 10 - - WSW 1020,3 10 0 0,0
20.06.2018 09:00:00 15,9 14,8 - - 18 10 - - W 1020,4 5 0 0,0
20.06.2018 08:00:00 16,7 14,7 - - 11 6 - - WSW 1020,2 10 0 0,0
20.06.2018 07:00:00 16,2 14,7 - - 9 5 - - SSW 1020,1 50 0 0,0
20.06.2018 06:00:00 15,2 14,6 - - 5 3 - - SW 1020,3 14 0 0,0
20.06.2018 05:00:00 15,0 14,3 - - 15 8 - - W 1020,7 10 0 0,0
20.06.2018 04:00:00 15,2 14,1 - - 15 8 - - W 1021,1 15 0 0,0
20.06.2018 03:00:00 16,1 14,0 - - 9 5 - - W 1021,1 45 0 0,0
20.06.2018 02:00:00 16,3 14,1 - - 9 5 - - W 1021,4 50 0 0,0
20.06.2018 01:00:00 16,2 14,4 - - 13 7 - - W 1022,0 40 - 0,0
20.06.2018 00:00:00 16,1 14,5 - - 13 7 - - W 1022,2 30 0 0,0
19.06.2018 23:00:00 16,4 14,5 - - 16 9 - - W 1022,5 25 0 0,0
19.06.2018 22:00:00 16,7 14,6 - - 16 9 - - W 1022,5 22 0 0,0
19.06.2018 21:00:00 17,1 14,5 - - 22 12 - - W 1022,5 35 0 0,0
19.06.2018 20:00:00 17,6 14,8 - - 22 12 - - W 1022,5 45 0 0,0
19.06.2018 19:00:00 17,9 15,1 - - 21 11 - - W 1022,8 22 6 0,0
19.06.2018 18:00:00 18,0 15,3 - - 24 13 - - W 1023,0 23 0 0,0
19.06.2018 17:00:00 17,9 15,7 - - 22 12 - - W 1023,1 30 12 0,0
19.06.2018 16:00:00 17,8 15,4 - - 24 13 - - W 1023,1 10 6 0,0
19.06.2018 15:00:00 18,5 15,9 - - 24 13 - - W 1023,3 10 24 0,0
19.06.2018 14:00:00 18,6 15,7 - - 28 15 - - W 1023,1 10 0 0,0
19.06.2018 13:00:00 18,4 16,1 - - 24 13 - - W 1023,2 10 0 0,0
19.06.2018 12:00:00 17,5 16,3 - - 16 9 - - W 1023,4 10 0 0,0
19.06.2018 11:00:00 16,1 15,7 - - 18 10 - - W 1023,5 6 0 0,2
19.06.2018 10:00:00 15,8 15,5 16,5 15,2 16 9 - - W 1023,5 4,0 0 0,0
19.06.2018 09:00:00 15,3 15,1 - - 18 10 - - W 1023,3 4,5 0 0,2
19.06.2018 08:00:00 14,8 14,5 - - 13 7 - - W 1023,2 1,4 0 0,0
19.06.2018 07:00:00 14,5 14,2 - - 15 8 - - W 1022,9 6 0 0,0
19.06.2018 06:00:00 14,5 14,1 - - 15 8 - - W 1022,4 3,4 0 0,2
19.06.2018 05:00:00 14,6 14,3 - - 15 8 - - W 1022,2 3,6 0 0,4
19.06.2018 04:00:00 14,7 14,5 - - 16 9 - - W 1021,8 2,9 0 0,4
19.06.2018 03:00:00 14,8 14,5 - - 22 12 - - W 1021,8 2,3 0 0,4
19.06.2018 02:00:00 14,9 14,7 - - 26 14 - - W 1021,8 1,1 0 0,2
19.06.2018 01:00:00 15,2 14,8 - - 31 17 48 26 W 1021,7 1,4 - 0,0
19.06.2018 00:00:00 15,4 14,8 - - 31 17 46 25 W 1021,5 5 0 0,0
18.06.2018 23:00:00 15,4 14,8 - - 29 16 48 26 W 1021,7 7 0 0,0
18.06.2018 22:00:00 15,6 14,9 - - 26 14 48 26 W 1021,4 5 0 0,2
18.06.2018 21:00:00 15,7 15,0 - - 29 16 - - W 1020,8 3,0 0 0,0
18.06.2018 20:00:00 15,9 15,1 - - 29 16 - - WSW 1020,7 12 0 0,0
18.06.2018 19:00:00 16,2 15,0 - - 31 17 52 28 W 1020,3 14 0 0,0
18.06.2018 18:00:00 16,6 15,3 - - 29 16 - - W 1020,1 9 0 0,0
18.06.2018 17:00:00 16,3 14,6 - - 28 15 46 25 W 1020,3 13 0 0,0
18.06.2018 16:00:00 16,5 14,7 - - 31 17 48 26 W 1020,3 19 0 0,0
18.06.2018 15:00:00 17,2 14,4 - - 28 15 - - W 1020,6 29 0 0,0
18.06.2018 14:00:00 16,4 14,0 - - 21 11 - - W 1020,3 10 0 0,0
18.06.2018 13:00:00 15,3 13,2 - - 26 14 - - W 1020,9 8 0 0,0
18.06.2018 12:00:00 15,9 11,7 - - 28 15 - - W 1020,7 10 18 0,0
18.06.2018 11:00:00 15,5 10,8 - - 24 13 - - W 1020,4 10 6 0,0
18.06.2018 10:00:00 14,8 9,9 16,5 15,2 24 13 - - W 1020,3 10 6 0,0
18.06.2018 09:00:00 14,5 10,9 - - 26 14 - - W 1019,9 10 0 0,0
18.06.2018 08:00:00 14,2 12,0 - - 24 13 - - W 1019,2 13 0 0,0
18.06.2018 07:00:00 14,0 11,8 - - 24 13 - - W 1018,5 13 0 0,0
18.06.2018 06:00:00 13,8 11,8 - - 26 14 - - W 1017,9 12 0 0,0
18.06.2018 05:00:00 13,8 11,8 - - 26 14 - - W 1017,6 15 0 0,0
18.06.2018 04:00:00 13,9 12,0 - - 28 15 - - W 1017,2 17 0 0,0
18.06.2018 03:00:00 14,0 12,3 - - 26 14 - - W 1017,3 16 0 0,0
18.06.2018 02:00:00 13,6 12,9 - - 24 13 - - W 1017,3 6 0 0,2
18.06.2018 01:00:00 14,0 12,7 - - 24 13 46 25 W 1017,3 6 - 0,0
18.06.2018 00:00:00 13,9 12,9 - - 28 15 48 26 W 1017,0 14 0 0,0
17.06.2018 23:00:00 14,4 13,7 - - 34 18 50 27 WSW 1016,5 2,3 0 0,0
17.06.2018 22:00:00 14,7 14,4 - - 28 15 - - W 1016,4 2,7 0 0,2
17.06.2018 21:00:00 14,9 14,5 - - 28 15 - - W 1015,6 3,4 0 0,0
17.06.2018 20:00:00 15,1 14,7 - - 26 14 - - WSW 1015,5 4,3 0 0,2
17.06.2018 19:00:00 15,3 14,7 - - 28 15 - - W 1015,3 5 0 0,2
17.06.2018 18:00:00 15,9 14,7 - - 29 16 46 25 W 1015,1 6 0 0,0
17.06.2018 17:00:00 16,0 14,5 - - 21 11 - - W 1014,7 10 0 0,0
17.06.2018 16:00:00 16,5 14,7 - - 26 14 - - W 1014,9 10 0 0,0
17.06.2018 15:00:00 16,3 13,6 - - 9 5 - - SW 1014,7 10 0 0,0
17.06.2018 14:00:00 15,3 14,2 - - 9 5 - - SSE 1014,5 10 0 0,0
17.06.2018 13:00:00 14,0 12,8 - - 8 4 - - SE 1015,2 4,5 0 0,2
17.06.2018 12:00:00 14,3 11,7 - - 8 4 - - SSW 1015,7 9 0 0,0
17.06.2018 11:00:00 13,8 11,3 - - 13 7 - - SW 1015,9 10 0 0,0
17.06.2018 10:00:00 14,7 10,8 16,7 15,2 16 9 - - WSW 1015,9 10 0 0,0
17.06.2018 09:00:00 14,5 10,9 - - 21 11 - - WSW 1015,9 10 0 0,0
17.06.2018 08:00:00 14,0 11,0 - - 21 11 - - W 1015,9 15 0 0,0
17.06.2018 07:00:00 13,7 10,6 - - 18 10 - - W 1015,5 17 0 0,0
17.06.2018 06:00:00 13,1 9,8 - - 22 12 - - W 1015,2 18 0 0,2
17.06.2018 05:00:00 13,1 10,3 - - 24 13 - - W 1015,1 13 0 0,0
17.06.2018 04:00:00 13,5 10,0 - - 26 14 - - W 1015,0 13 0 0,0
17.06.2018 03:00:00 13,7 10,3 - - 24 13 - - W 1015,0 13 0 0,0
17.06.2018 02:00:00 13,8 10,6 - - 28 15 46 25 W 1014,9 13 0 0,0
17.06.2018 01:00:00 13,7 10,7 - - 28 15 46 25 W 1014,9 14 - 0,0
17.06.2018 00:00:00 13,5 10,5 - - 29 16 46 25 W 1015,1 18 0 0,0
16.06.2018 23:00:00 13,6 10,9 - - 28 15 48 26 W 1015,0 17 0 0,0
16.06.2018 22:00:00 13,6 10,7 - - 29 16 46 25 W 1014,9 14 0 0,0
16.06.2018 21:00:00 13,8 10,6 - - 28 15 46 25 W 1014,5 17 0 0,0
16.06.2018 20:00:00 14,1 10,4 - - 26 14 48 26 W 1014,3 17 0 0,0
16.06.2018 19:00:00 14,8 10,3 - - 34 18 55 30 W 1013,7 19 42 0,0

tt = temperature
td = dewpoint
tt -20cm = temperature -20cm
tt -100cm = temperature -100cm
ff = wind speed
fx = gusts
dd = wind direction
ppp = reduced air pressure
vv = visibility
sd = sunshine duration
rr = precipitation

Next stations